| time (UTC) | temp F | wind direction | speed knots | gust knots | rain 1hr in | rain 24hr in | rain mn in | humidity % | barometer mb |
| 20260903093624 | 76 | 0 | 0.0 | 0.0 | 0.00 | 0.00 | 0.00 | 84 | 1009.6 |
| 20260903092703 | 77 | 161 | 0.0 | 1.7 | 0.00 | 0.00 | 0.00 | 84 | 1009.7 |
| 20260903091803 | 77 | 161 | 0.0 | 1.7 | 0.00 | 0.00 | 0.00 | 84 | 1009.6 |
| 20260903090903 | 77 | 166 | 0.0 | 1.7 | 0.00 | 0.00 | 0.00 | 83 | 1009.6 |
| 20260903090003 | 77 | 0 | 0.0 | 0.0 | 0.00 | 0.00 | 0.00 | 83 | 1009.5 |
| 20260903085403 | 77 | 0 | 0.0 | 0.0 | 0.00 | 0.00 | 0.00 | 83 | 1009.4 |
| 20260903084503 | 77 | 0 | 0.0 | 0.0 | 0.00 | 0.00 | 0.00 | 83 | 1009.4 |
| 20260903083603 | 77 | 0 | 0.0 | 0.0 | 0.00 | 0.00 | 0.00 | 83 | 1009.3 |
| 20260903082703 | 77 | 0 | 0.0 | 0.0 | 0.00 | 0.00 | 0.00 | 83 | 1009.3 |
| 20260903081803 | 77 | 0 | 0.0 | 0.0 | 0.00 | 0.00 | 0.00 | 82 | 1009.4 |
| 20260903080904 | 77 | 0 | 0.0 | 0.0 | 0.00 | 0.00 | 0.00 | 81 | 1009.6 |
| 20260903080003 | 77 | 0 | 0.0 | 0.0 | 0.00 | 0.00 | 0.00 | 81 | 1009.6 |
| 20260903075403 | 77 | 0 | 0.0 | 0.0 | 0.00 | 0.00 | 0.00 | 80 | 1009.6 |
| 20260903074503 | 77 | 0 | 0.0 | 0.0 | 0.00 | 0.00 | 0.00 | 80 | 1009.5 |
| 20260903073604 | 78 | 0 | 0.0 | 0.0 | 0.00 | 0.00 | 0.00 | 79 | 1009.6 |
| 20260903072703 | 78 | 0 | 0.0 | 0.0 | 0.00 | 0.00 | 0.00 | 79 | 1009.6 |
| 20260903071803 | 78 | 0 | 0.0 | 0.0 | 0.00 | 0.00 | 0.00 | 80 | 1009.7 |
| 20260903070903 | 78 | 0 | 0.0 | 0.0 | 0.00 | 0.00 | 0.00 | 79 | 1009.7 |
| 20260903070004 | 78 | 189 | 0.0 | 2.6 | 0.00 | 0.00 | 0.00 | 79 | 1009.8 |
| 20260903065424 | 78 | 188 | 0.0 | 1.7 | 0.00 | 0.00 | 0.00 | 79 | 1009.8 |
| 20260903064503 | 78 | 178 | 0.0 | 1.7 | 0.00 | 0.00 | 0.00 | 79 | 1009.7 |
| 20260903063624 | 78 | 176 | 0.0 | 3.5 | 0.00 | 0.00 | 0.00 | 78 | 1009.8 |
| 20260903062703 | 79 | 165 | 0.9 | 4.3 | 0.00 | 0.00 | 0.00 | 78 | 1009.9 |
| 20260903061803 | 79 | 149 | 0.9 | 3.5 | 0.00 | 0.00 | 0.00 | 77 | 1010.0 |
| 20260903060924 | 79 | 146 | 1.7 | 5.2 | 0.00 | 0.00 | 0.00 | 77 | 1010.0 |
| 20260903060003 | 79 | 153 | 1.7 | 6.1 | 0.00 | 0.00 | 0.00 | 76 | 1010.0 |
| 20260903055403 | 79 | 150 | 1.7 | 5.2 | 0.00 | 0.00 | 0.00 | 76 | 1010.1 |
| 20260903054524 | 80 | 142 | 0.9 | 3.5 | 0.00 | 0.00 | 0.00 | 75 | 1010.1 |
| 20260903053603 | 80 | 0 | 0.0 | 0.0 | 0.00 | 0.00 | 0.00 | 74 | 1010.3 |
| 20260903052704 | 80 | 0 | 0.0 | 0.0 | 0.00 | 0.00 | 0.00 | 73 | 1010.3 |
| 20260903051824 | 80 | 0 | 0.0 | 0.0 | 0.00 | 0.00 | 0.00 | 72 | 1010.2 |
| 20260903050903 | 81 | 140 | 0.9 | 3.5 | 0.00 | 0.00 | 0.00 | 72 | 1010.2 |
| 20260903050004 | 81 | 107 | 0.0 | 1.7 | 0.00 | 0.00 | 0.00 | 71 | 1010.2 |
| 20260903045403 | 81 | 131 | 0.9 | 5.2 | 0.00 | 0.00 | 0.00 | 71 | 1010.2 |
| 20260903044524 | 81 | 129 | 1.7 | 5.2 | 0.00 | 0.00 | 0.00 | 71 | 1010.1 |
| 20260903043603 | 82 | 132 | 0.9 | 5.2 | 0.00 | 0.00 | 0.00 | 70 | 1010.1 |
| 20260903042703 | 82 | 134 | 1.7 | 5.2 | 0.00 | 0.00 | 0.00 | 70 | 1010.1 |
| 20260903041804 | 82 | 142 | 0.9 | 3.5 | 0.00 | 0.00 | 0.00 | 69 | 1010.1 |
| 20260903040904 | 83 | 145 | 0.9 | 3.5 | 0.00 | 0.00 | 0.00 | 69 | 1010.0 |
| 20260903040003 | 83 | 132 | 0.9 | 3.5 | 0.00 | 0.00 | 0.00 | 68 | 1009.9 |
| 20260903035403 | 83 | 133 | 1.7 | 4.3 | 0.00 | 0.00 | 0.00 | 68 | 1010.0 |
| 20260903034504 | 84 | 141 | 0.0 | 1.7 | 0.00 | 0.00 | 0.00 | 68 | 1010.0 |
| 20260903033603 | 84 | 142 | 0.9 | 4.3 | 0.00 | 0.00 | 0.00 | 68 | 1010.0 |
| 20260903032703 | 84 | 147 | 1.7 | 5.2 | 0.00 | 0.00 | 0.00 | 67 | 1009.9 |
| 20260903031803 | 85 | 156 | 2.6 | 6.1 | 0.00 | 0.00 | 0.00 | 66 | 1009.9 |
| 20260903030903 | 85 | 157 | 1.7 | 5.2 | 0.00 | 0.00 | 0.00 | 65 | 1009.9 |
| 20260903030004 | 86 | 146 | 1.7 | 5.2 | 0.00 | 0.00 | 0.00 | 65 | 1009.8 |
| 20260903025403 | 86 | 148 | 1.7 | 6.1 | 0.00 | 0.00 | 0.00 | 64 | 1009.6 |
| 20260903024503 | 86 | 144 | 1.7 | 6.1 | 0.00 | 0.00 | 0.00 | 63 | 1009.5 |
| 20260903023603 | 86 | 143 | 2.6 | 7.8 | 0.00 | 0.00 | 0.00 | 63 | 1009.3 |
| 20260903022703 | 87 | 145 | 2.6 | 5.2 | 0.00 | 0.00 | 0.00 | 62 | 1009.2 |
| 20260903021803 | 87 | 143 | 2.6 | 7.0 | 0.00 | 0.00 | 0.00 | 61 | 1009.0 |
| 20260903020903 | 88 | 135 | 1.7 | 9.6 | 0.00 | 0.00 | 0.00 | 60 | 1008.9 |
| 20260903020024 | 88 | 136 | 1.7 | 6.1 | 0.00 | 0.00 | 0.00 | 59 | 1008.8 |
| 20260903015403 | 88 | 133 | 1.7 | 7.0 | 0.00 | 0.00 | 0.00 | 59 | 1008.7 |
| 20260903014503 | 89 | 122 | 1.7 | 5.2 | 0.00 | 0.00 | 0.00 | 58 | 1008.5 |
| 20260903013603 | 89 | 135 | 1.7 | 5.2 | 0.00 | 0.00 | 0.00 | 58 | 1008.4 |
| 20260903012703 | 89 | 134 | 1.7 | 5.2 | 0.00 | 0.00 | 0.00 | 57 | 1008.5 |
| 20260903011803 | 89 | 138 | 1.7 | 4.3 | 0.00 | 0.00 | 0.00 | 56 | 1008.4 |
| 20260903010903 | 90 | 139 | 2.6 | 7.0 | 0.00 | 0.00 | 0.00 | 55 | 1008.3 |
| 20260903010003 | 90 | 138 | 2.6 | 7.8 | 0.00 | 0.00 | 0.00 | 54 | 1008.2 |
| 20260903005403 | 91 | 137 | 2.6 | 10.4 | 0.00 | 0.00 | 0.00 | 53 | 1008.1 |
| 20260903004504 | 91 | 125 | 2.6 | 8.7 | 0.00 | 0.00 | 0.00 | 51 | 1008.1 |
| 20260903003604 | 92 | 125 | 2.6 | 6.1 | 0.00 | 0.00 | 0.00 | 49 | 1008.2 |
| 20260903002704 | 93 | 119 | 1.7 | 5.2 | 0.00 | 0.00 | 0.00 | 47 | 1008.1 |
| 20260903001804 | 94 | 102 | 2.6 | 7.0 | 0.00 | 0.00 | 0.00 | 46 | 1008.0 |
| 20260903000904 | 94 | 100 | 2.6 | 5.2 | 0.00 | 0.00 | 0.00 | 45 | 1007.9 |
| 20260903000004 | 95 | 125 | 1.7 | 7.0 | 0.00 | 0.00 | 0.00 | 46 | 1008.0 |
| 20260902235404 | 95 | 121 | 2.6 | 7.0 | 0.00 | 0.00 | 0.00 | 45 | 1007.9 |
| 20260902234504 | 97 | 121 | 3.5 | 7.0 | 0.00 | 0.00 | 0.00 | 44 | 1007.9 |
| 20260902233604 | 99 | 103 | 2.6 | 7.8 | 0.00 | 0.00 | 0.00 | 41 | 1007.8 |
| 20260902232704 | 100 | 60 | 3.5 | 8.7 | 0.00 | 0.00 | 0.00 | 38 | 1007.7 |
| 20260902231805 | 101 | 61 | 1.7 | 7.0 | 0.00 | 0.00 | 0.00 | 37 | 1007.6 |
| 20260902230925 | 101 | 58 | 2.6 | 7.8 | 0.00 | 0.00 | 0.00 | 36 | 1007.7 |
| 20260902230004 | 101 | 49 | 2.6 | 7.8 | 0.00 | 0.00 | 0.00 | 35 | 1007.8 |
| 20260902225404 | 101 | 58 | 4.3 | 10.4 | 0.00 | 0.00 | 0.00 | 36 | 1007.7 |
| 20260902224504 | 101 | 51 | 4.3 | 12.2 | 0.00 | 0.00 | 0.00 | 34 | 1007.6 |
| 20260902223625 | 101 | 8 | 4.3 | 9.6 | 0.00 | 0.00 | 0.00 | 36 | 1007.7 |
| 20260902222705 | 101 | 37 | 4.3 | 9.6 | 0.00 | 0.00 | 0.00 | 36 | 1007.7 |
| 20260902221805 | 101 | 27 | 3.5 | 10.4 | 0.00 | 0.00 | 0.00 | 36 | 1007.8 |
| 20260902220925 | 101 | 33 | 4.3 | 13.9 | 0.00 | 0.00 | 0.00 | 36 | 1007.8 |
| 20260902220004 | 102 | 22 | 4.3 | 13.9 | 0.00 | 0.00 | 0.00 | 36 | 1007.8 |
| 20260902215405 | 102 | 55 | 3.5 | 10.4 | 0.00 | 0.00 | 0.00 | 36 | 1008.0 |
| 20260902214505 | 102 | 50 | 4.3 | 11.3 | 0.00 | 0.00 | 0.00 | 36 | 1008.0 |
| 20260902213604 | 102 | 39 | 4.3 | 11.3 | 0.00 | 0.00 | 0.00 | 36 | 1008.0 |
| 20260902212704 | 102 | 23 | 5.2 | 10.4 | 0.00 | 0.00 | 0.00 | 36 | 1008.2 |
| 20260902211804 | 102 | 49 | 4.3 | 10.4 | 0.00 | 0.00 | 0.00 | 36 | 1008.3 |
| 20260902210904 | 102 | 45 | 3.5 | 8.7 | 0.00 | 0.00 | 0.00 | 37 | 1008.2 |
| 20260902210004 | 102 | 40 | 4.3 | 10.4 | 0.00 | 0.00 | 0.00 | 36 | 1008.4 |
| 20260902205404 | 102 | 47 | 5.2 | 11.3 | 0.00 | 0.00 | 0.00 | 35 | 1008.5 |
| 20260902204505 | 103 | 52 | 2.6 | 8.7 | 0.00 | 0.00 | 0.00 | 35 | 1008.5 |
| 20260902203604 | 102 | 37 | 3.5 | 9.6 | 0.00 | 0.00 | 0.00 | 38 | 1008.6 |
| 20260902202704 | 102 | 33 | 5.2 | 12.2 | 0.00 | 0.00 | 0.00 | 38 | 1008.7 |
| 20260902201804 | 102 | 16 | 4.3 | 9.6 | 0.00 | 0.00 | 0.00 | 38 | 1008.9 |
| 20260902200904 | 101 | 13 | 4.3 | 9.6 | 0.00 | 0.00 | 0.00 | 38 | 1009.1 |
| 20260902200025 | 101 | 15 | 4.3 | 9.6 | 0.00 | 0.00 | 0.00 | 38 | 1009.1 |
| 20260902195404 | 101 | 25 | 4.3 | 9.6 | 0.00 | 0.00 | 0.00 | 39 | 1009.2 |
| 20260902194504 | 101 | 24 | 4.3 | 9.6 | 0.00 | 0.00 | 0.00 | 38 | 1009.4 |
| 20260902193604 | 101 | 18 | 5.2 | 11.3 | 0.00 | 0.00 | 0.00 | 38 | 1009.5 |
| 20260902192704 | 101 | 19 | 4.3 | 9.6 | 0.00 | 0.00 | 0.00 | 39 | 1009.7 |
| 20260902191805 | 101 | 51 | 3.5 | 11.3 | 0.00 | 0.00 | 0.00 | 39 | 1009.8 |
| 20260902190904 | 100 | 42 | 4.3 | 8.7 | 0.00 | 0.00 | 0.00 | 40 | 1010.0 |
| 20260902190004 | 101 | 48 | 4.3 | 8.7 | 0.00 | 0.00 | 0.00 | 39 | 1010.2 |
| 20260902185404 | 101 | 40 | 3.5 | 8.7 | 0.00 | 0.00 | 0.00 | 39 | 1010.2 |
| 20260902184504 | 100 | 37 | 3.5 | 9.6 | 0.00 | 0.00 | 0.00 | 40 | 1010.3 |
| 20260902183604 | 100 | 33 | 3.5 | 8.7 | 0.00 | 0.00 | 0.00 | 40 | 1010.5 |
| 20260902182705 | 99 | 50 | 3.5 | 8.7 | 0.00 | 0.00 | 0.00 | 41 | 1010.7 |
| 20260902181804 | 99 | 3 | 4.3 | 11.3 | 0.00 | 0.00 | 0.00 | 41 | 1010.8 |
| 20260902180904 | 99 | 41 | 2.6 | 10.4 | 0.00 | 0.00 | 0.00 | 42 | 1011.0 |
| 20260902180006 | 99 | 65 | 1.7 | 6.1 | 0.00 | 0.00 | 0.00 | 44 | 1011.2 |
| 20260902175404 | 98 | 47 | 2.6 | 9.6 | 0.00 | 0.00 | 0.00 | 44 | 1011.3 |
| 20260902174504 | 98 | 48 | 1.7 | 9.6 | 0.00 | 0.00 | 0.00 | 44 | 1011.4 |
| 20260902173604 | 97 | 8 | 2.6 | 7.0 | 0.00 | 0.00 | 0.00 | 45 | 1011.6 |
| 20260902172704 | 97 | 52 | 2.6 | 8.7 | 0.00 | 0.00 | 0.00 | 46 | 1011.8 |
| 20260902171804 | 96 | 53 | 2.6 | 7.0 | 0.00 | 0.00 | 0.00 | 47 | 1011.9 |
| 20260902170925 | 95 | 155 | 1.7 | 3.5 | 0.00 | 0.00 | 0.00 | 47 | 1012.1 |
| 20260902170004 | 95 | 42 | 1.7 | 7.0 | 0.00 | 0.00 | 0.00 | 48 | 1012.1 |
| 20260902165404 | 94 | 39 | 2.6 | 6.1 | 0.00 | 0.00 | 0.00 | 49 | 1012.3 |
| 20260902164504 | 94 | 54 | 0.9 | 6.1 | 0.00 | 0.00 | 0.00 | 50 | 1012.4 |
| 20260902163604 | 93 | 69 | 1.7 | 4.3 | 0.00 | 0.00 | 0.00 | 51 | 1012.4 |
| 20260902162704 | 92 | 80 | 1.7 | 4.3 | 0.00 | 0.00 | 0.00 | 53 | 1012.4 |
| 20260902161804 | 90 | 5 | 2.6 | 4.3 | 0.00 | 0.00 | 0.00 | 56 | 1012.5 |
| 20260902160904 | 90 | 40 | 1.7 | 4.3 | 0.00 | 0.00 | 0.00 | 56 | 1012.7 |
| 20260902160007 | 89 | 101 | 0.9 | 2.6 | 0.00 | 0.00 | 0.00 | 60 | 1012.7 |
| 20260902155404 | 88 | 66 | 0.9 | 2.6 | 0.00 | 0.00 | 0.00 | 62 | 1012.6 |
| 20260902154504 | 87 | 40 | 0.9 | 4.3 | 0.00 | 0.00 | 0.00 | 63 | 1012.7 |
| 20260902153605 | 86 | 148 | 0.9 | 3.5 | 0.00 | 0.00 | 0.00 | 64 | 1012.6 |
| 20260902152705 | 86 | 62 | 0.9 | 3.5 | 0.00 | 0.00 | 0.00 | 65 | 1012.6 |
| 20260902151825 | 85 | 41 | 0.9 | 4.3 | 0.00 | 0.00 | 0.00 | 66 | 1012.7 |
| 20260902150904 | 84 | 53 | 2.6 | 4.3 | 0.00 | 0.00 | 0.00 | 67 | 1012.6 |
| 20260902150025 | 84 | 60 | 1.7 | 4.3 | 0.00 | 0.00 | 0.00 | 70 | 1012.6 |
| 20260902145404 | 84 | 58 | 0.9 | 3.5 | 0.00 | 0.00 | 0.00 | 70 | 1012.7 |
| 20260902144504 | 83 | 112 | 1.7 | 3.5 | 0.00 | 0.00 | 0.00 | 71 | 1012.6 |
| 20260902143604 | 83 | 143 | 0.9 | 4.3 | 0.00 | 0.00 | 0.00 | 71 | 1012.7 |
| 20260902142705 | 82 | 153 | 0.9 | 4.3 | 0.00 | 0.00 | 0.00 | 72 | 1012.7 |
| 20260902141804 | 82 | 148 | 0.9 | 3.5 | 0.00 | 0.00 | 0.00 | 73 | 1012.7 |
| 20260902140904 | 82 | 152 | 0.9 | 3.5 | 0.00 | 0.00 | 0.00 | 74 | 1012.7 |
| 20260902140025 | 81 | 154 | 0.9 | 4.3 | 0.00 | 0.00 | 0.00 | 74 | 1012.5 |
| 20260902135404 | 81 | 152 | 0.9 | 4.3 | 0.00 | 0.00 | 0.00 | 75 | 1012.7 |
| 20260902134504 | 80 | 87 | 0.0 | 2.6 | 0.00 | 0.00 | 0.00 | 77 | 1012.5 |
| 20260902133604 | 80 | 135 | 0.9 | 4.3 | 0.00 | 0.00 | 0.00 | 77 | 1012.6 |
| 20260902132705 | 79 | 135 | 1.7 | 5.2 | 0.00 | 0.00 | 0.00 | 77 | 1012.7 |
| 20260902131804 | 78 | 132 | 0.9 | 3.5 | 0.00 | 0.00 | 0.00 | 79 | 1012.7 |
| 20260902130925 | 77 | 0 | 0.0 | 0.0 | 0.00 | 0.00 | 0.00 | 80 | 1012.6 |
| 20260902130025 | 77 | 0 | 0.0 | 0.0 | 0.00 | 0.00 | 0.00 | 80 | 1012.4 |
| 20260902125425 | 76 | 0 | 0.0 | 0.0 | 0.00 | 0.00 | 0.00 | 80 | 1012.3 |
| 20260902124504 | 76 | 0 | 0.0 | 0.0 | 0.00 | 0.00 | 0.00 | 80 | 1012.1 |
| 20260902123625 | 76 | 0 | 0.0 | 0.0 | 0.00 | 0.00 | 0.00 | 79 | 1012.1 |
| 20260902122725 | 76 | 0 | 0.0 | 0.0 | 0.00 | 0.00 | 0.00 | 80 | 1012.0 |
| 20260902121825 | 76 | 0 | 0.0 | 0.0 | 0.00 | 0.00 | 0.00 | 80 | 1012.0 |
| 20260902120905 | 76 | 0 | 0.0 | 0.0 | 0.00 | 0.00 | 0.00 | 80 | 1012.0 |
| 20260902120025 | 76 | 0 | 0.0 | 0.0 | 0.00 | 0.00 | 0.00 | 79 | 1012.0 |
| 20260902115404 | 76 | 0 | 0.0 | 0.0 | 0.00 | 0.00 | 0.00 | 79 | 1012.0 |
| 20260902114504 | 77 | 0 | 0.0 | 0.0 | 0.00 | 0.00 | 0.00 | 78 | 1012.1 |
| 20260902113604 | 77 | 0 | 0.0 | 0.0 | 0.00 | 0.00 | 0.00 | 77 | 1012.1 |
| 20260902112704 | 77 | 0 | 0.0 | 0.0 | 0.00 | 0.00 | 0.00 | 76 | 1012.0 |
| 20260902111804 | 77 | 0 | 0.0 | 0.0 | 0.00 | 0.00 | 0.00 | 77 | 1011.9 |
| 20260902110904 | 77 | 0 | 0.0 | 0.0 | 0.00 | 0.00 | 0.00 | 77 | 1011.9 |
| 20260902110007 | 77 | 0 | 0.0 | 0.0 | 0.00 | 0.00 | 0.00 | 77 | 1012.0 |
| 20260902105404 | 77 | 0 | 0.0 | 0.0 | 0.00 | 0.00 | 0.00 | 77 | 1012.0 |
| 20260902104504 | 77 | 0 | 0.0 | 0.0 | 0.00 | 0.00 | 0.00 | 77 | 1012.1 |
| 20260902103604 | 78 | 0 | 0.0 | 0.0 | 0.00 | 0.00 | 0.00 | 77 | 1012.1 |
| 20260902102704 | 78 | 0 | 0.0 | 0.0 | 0.00 | 0.00 | 0.00 | 76 | 1012.0 |
| 20260902101804 | 78 | 0 | 0.0 | 0.0 | 0.00 | 0.00 | 0.00 | 75 | 1011.9 |
| 20260902100904 | 79 | 0 | 0.0 | 0.0 | 0.00 | 0.00 | 0.00 | 75 | 1011.8 |
| 20260902100004 | 79 | 0 | 0.0 | 0.0 | 0.00 | 0.00 | 0.00 | 73 | 1011.8 |
| 20260902095404 | 79 | 0 | 0.0 | 0.0 | 0.00 | 0.00 | 0.00 | 73 | 1011.9 |
| 20260902094525 | 79 | 0 | 0.0 | 0.0 | 0.00 | 0.00 | 0.00 | 72 | 1011.9 |